Lid_Strength_Index
-0 -0 -0 -0 -1 0 0 -0 0 3 7 8 5 6 6 7 8 7 8 7 7 8 7 7 6 7 8 7
-0 -0 -0 -0 -0 0 -0 -1 0 4 8 6 5 7 6 6 6 6 6 5 4 5 6 6 7 8 8 9
-0 -0 0 -0 0 -0 -1 -1 2 5 9 3 7 6 6 6 4 4 3 4 4 5 6 8 9 8 10 10
0 0 0 0 1 -0 1 1 3 6 6 7 6 5 4 4 5 5 5 5 5 7 7 8 11 11 10 10
1 1 1 2 4 5 4 6 6 7 6 4 4 4 4 5 5 5 7 6 8 9 9 8 9 9 10 10
1 1 1 3 5 3 6 5 5 5 4 4 6 4 4 6 7 8 7 8 9 8 8 8 9 9 10 10
1 2 1 2 1 2 6 6 5 5 5 4 6 6 5 6 7 8 8 9 8 8 8 9 9 9 10 11
2 1 2 1 0 2 8 8 6 5 5 4 6 5 5 6 7 8 8 8 8 8 9 9 9 11 10 10
2 3 2 0 1 2 13 8 7 3 5 6 6 6 6 5 8 8 8 9 9 9 9 10 9 10 10 11
1 2 1 1 2 9 13 8 6 7 7 7 7 6 7 6 7 8 8 9 8 9 9 9 9 10 11 11
3 1 1 2 9 11 8 9 9 7 8 9 9 8 9 10 10 11 11 10 10 10 9 10 10 10 12 13
2 2 2 6 11 10 9 8 8 8 9 10 9 9 10 11 12 12 11 12 13 11 11 11 11 12 12 14
3 2 4 10 10 9 9 9 9 10 10 11 11 10 11 11 12 12 13 13 14 12 12 11 11 12 13 12
3 2 6 9 9 10 10 9 10 10 11 11 12 12 12 11 13 13 12 13 15 13 12 11 11 12 11 14
5 5 9 10 11 11 10 10 10 11 11 11 12 12 13 12 11 13 12 13 14 14 13 13 13 13 13 13
7 8 9 11 11 11 10 11 11 11 11 12 13 13 13 12 11 12 14 13 14 14 14 13 13 13 13 12
9 9 11 12 12 12 12 12 12 12 12 13 14 13 12 11 12 13 13 13 14 14 15 14 13 14 13 13